Weather History for KMLF - September, 2013

Change the Weather History Date:

Tuesday, September 3, 2013

  Actual Average Record
Temperature  
Mean Temperature 74 °F -  
Max Temperature 88 °F 83 °F 93 °F (2007)
Min Temperature 61 °F 49 °F 39 °F (2008)
Cooling Degree Days 10    
Growing Degree Days 24 (Base 50)    
Moisture  
Dew Point 52 °F    
Average Humidity 53    
Maximum Humidity 83    
Minimum Humidity 16    
Precipitation  
Precipitation 0.00 in - - ()
Sea Level Pressure  
Sea Level Pressure 29.97 in    
Wind  
Wind Speed 8 mph (SSW)    
Max Wind Speed 21 mph    
Max Gust Speed 28 mph    
Visibility 10 miles    
Events      
Averages and records for this station are not official NWS values.
T = Trace of Precipitation, MM = Missing Value Source: NWS Daily Summary

Daily Weather History Graph

Daily Weather History Graph

Search for Another Location

Airport or City:

Trip Planner

Search our weather history database for the weather conditions in past years. The results will help you decide how hot, cold, wet, or windy it might be!

Date:

Astronomy

Sep. 03, 2013 Rise Set
Actual Time 7:03 AM MDT 7:58 PM MDT
Civil Twilight 6:36 AM MDT 8:25 PM MDT
Nautical Twilight 6:04 AM MDT 8:57 PM MDT
Astronomical Twilight 5:31 AM MDT 9:30 PM MDT
Moon 5:21 AM MDT (9/3) 6:47 PM MDT (9/3)
Length of Visible Light 13h 48m
Length of Day
12h 54m
Waning Crescent, 3% of the Moon is Illuminated
Sep 3
Waning Crescent
Sep 5
New
Sep 12
First Quarter
Sep 19
Full
Sep 26
Last Quarter

Hourly Weather History & Observations

Time (MDT) Temp. Dew Point Humidity Pressure Visibility Wind Dir Wind Speed Gust Speed Precip Events Conditions
12:52 AM 64.9 °F 54.0 °F 68% 29.94 in 10.0 mi SW 5.8 mph - N/A   Clear
1:52 AM 64.9 °F 55.9 °F 73% 29.94 in 10.0 mi SW 8.1 mph - N/A   Clear
2:52 AM 64.9 °F 55.9 °F 73% 29.93 in 10.0 mi SSW 8.1 mph - N/A   Clear
3:52 AM 61.0 °F 55.9 °F 83% 29.94 in 10.0 mi South 5.8 mph - N/A   Scattered Clouds
4:52 AM 63.0 °F 55.9 °F 78% 29.95 in 10.0 mi South 6.9 mph - N/A   Partly Cloudy
5:52 AM 62.1 °F 55.9 °F 80% 29.94 in 10.0 mi South 6.9 mph - N/A   Mostly Cloudy
6:52 AM 61.0 °F 55.0 °F 81% 29.96 in 10.0 mi SW 10.4 mph - N/A   Clear
7:52 AM 64.0 °F 55.9 °F 75% 30.00 in 10.0 mi South 12.7 mph - N/A   Clear
8:52 AM 68.0 °F 55.9 °F 65% 30.04 in 10.0 mi South 15.0 mph 23.0 mph N/A   Clear
9:52 AM 72.0 °F 54.0 °F 53% 30.05 in 10.0 mi South 20.7 mph 27.6 mph N/A   Clear
10:52 AM 70.0 °F 54.0 °F 57% 30.06 in 10.0 mi South 15.0 mph - N/A   Mostly Cloudy
11:52 AM 73.0 °F 53.1 °F 49% 30.05 in 10.0 mi SW 10.4 mph - N/A   Overcast
12:52 PM 77.0 °F 52.0 °F 42% 30.02 in 10.0 mi SSW 10.4 mph - N/A   Mostly Cloudy
2:52 PM 84.0 °F 50.0 °F 31% 29.97 in 10.0 mi SSW 10.4 mph 19.6 mph N/A   Clear
3:52 PM 86.0 °F 46.9 °F 26% 29.95 in 10.0 mi SSW 17.3 mph 25.3 mph N/A   Clear
4:52 PM 87.1 °F 46.0 °F 24% 29.93 in 10.0 mi South 8.1 mph 20.7 mph N/A   Clear
5:52 PM 84.9 °F 46.0 °F 26% 29.92 in 10.0 mi SSW 10.4 mph - N/A   Partly Cloudy
6:52 PM 84.9 °F 46.0 °F 26% 29.91 in 10.0 mi SSW 6.9 mph - N/A   Partly Cloudy
7:52 PM 80.1 °F 48.9 °F 34% 29.92 in 10.0 mi NNW 5.8 mph - N/A   Partly Cloudy
8:52 PM 75.0 °F 48.9 °F 40% 29.95 in 10.0 mi Variable 3.5 mph - N/A   Clear
9:52 PM 71.1 °F 50.0 °F 47% 29.97 in 10.0 mi WNW 3.5 mph - N/A   Clear
10:52 PM 68.0 °F 51.1 °F 55% 30.01 in 10.0 mi WNW 5.8 mph - N/A   Clear
11:52 PM 68.0 °F 53.1 °F 59% 30.00 in 10.0 mi Calm Calm - N/A   Clear